TimeCST,TemperatureF,Dew PointF,Humidity,Sea Level PressureIn,VisibilityMPH,Wind Direction,Wind SpeedMPH,Gust SpeedMPH,PrecipitationIn,Events,Conditions,WindDirDegrees,DateUTC
12:00 AM,81,77,85,29.91,12,ESE,3.5,,,,Scattered Clouds,110,2013-09-30 06:00:00
3:00 AM,80,77,87,29.88,12,NNW,4.6,,,,Scattered Clouds,330,2013-09-30 09:00:00
5:00 AM,75.2,73.4,94,29.88,6.2,West,3.5,-,N/A,,Scattered Clouds,280,2013-09-30 11:00:00
6:00 AM,74,73,96,29.91,12,Calm,Calm,,,,,,2013-09-30 12:00:00
6:00 AM,75.2,73.4,94,29.90,6.2,Calm,Calm,-,N/A,,Scattered Clouds,0,2013-09-30 12:00:00
7:00 AM,75.2,73.4,94,29.90,6.2,Calm,Calm,-,N/A,,Partly Cloudy,0,2013-09-30 13:00:00
8:00 AM,80.6,75.2,84,29.91,6.2,SW,3.5,-,N/A,,Partly Cloudy,230,2013-09-30 14:00:00
9:00 AM,84,76,70,29.92,16,Calm,Calm,,,,Scattered Clouds,,2013-09-30 15:00:00
9:00 AM,84.2,75.2,74,29.91,6.2,Calm,Calm,-,N/A,,Partly Cloudy,0,2013-09-30 15:00:00
10:00 AM,86.0,75.2,70,29.91,6.2,South,3.5,-,N/A,,Partly Cloudy,170,2013-09-30 16:00:00
11:00 AM,87.8,73.4,62,29.89,6.2,SSE,3.5,-,N/A,,Partly Cloudy,150,2013-09-30 17:00:00
12:00 PM,89,74,54,29.87,16,ESE,5.8,,,,Partly Cloudy,120,2013-09-30 18:00:00
12:00 PM,89.6,75.2,62,29.86,6.2,ESE,5.8,-,N/A,,Scattered Clouds,120,2013-09-30 18:00:00
1:00 PM,87.8,73.4,62,29.84,6.2,SE,4.6,-,N/A,,Scattered Clouds,140,2013-09-30 19:00:00
2:00 PM,87.8,75.2,66,29.82,6.2,SE,3.5,-,N/A,,Scattered Clouds,140,2013-09-30 20:00:00
3:00 PM,87.8,77.0,70,29.82,6.2,East,9.2,-,N/A,,Scattered Clouds,80,2013-09-30 21:00:00
4:00 PM,87.8,77.0,70,29.82,6.2,East,9.2,-,N/A,,Scattered Clouds,80,2013-09-30 22:00:00
5:00 PM,84.2,77.0,79,29.83,6.2,East,6.9,-,N/A,,Scattered Clouds,100,2013-09-30 23:00:00
6:00 PM,84.2,77.0,79,29.83,6.2,East,4.6,-,N/A,,Scattered Clouds,90,2013-10-01 00:00:00
9:00 PM,82,77,80,29.91,16,SE,2.3,,,,Partly Cloudy,130,2013-10-01 03:00:00